Flag for U.S.A. Weather past 2 weeks in Louisville, Kentucky, U.S.A.

Now
80 °F

Partly sunny.


Feels Like: 79 °F
Forecast: 57 / 81 °F
Wind: 10 mph from Southeast

Location: Standiford Field

Current Time: Apr 18, 2015 at 5:28:37 PM

Latest Report: Apr 18, 2015 at 4:56 PM


Visibility: 10 mi

Pressure: 29.93 "Hg

Humidity: 29%

Dew point: 45 °F

Location of LouisvilleLocation

Historic Weather in Louisville — Graph

°F

Louisville temperature yesterday

Maximum temperature yesterday: 76 °F (at 2:56 PM)
Minimum temperature yesterday: 64 °F (at 5:56 AM)
Average temperature yesterday: 69 °F

Past Weeks' High & Low Weather Summary

 TemperatureHumidityPressure
High83 °F (Apr 9, 3:56 PM)96% (Apr 7, 7:56 AM)30.40 "Hg (Apr 7, 7:56 AM)
Low37 °F (Apr 5, 6:56 AM)15% (Apr 5, 2:56 PM)29.72 "Hg (Apr 10, 3:56 AM)
Average63 °F62%30.07 "Hg
* Reported Apr 3 3:00 PM — Apr 18 3:56 PM, Louisville, Weather by CustomWeather, © 2015

Note: Actual official high and low records may vary slightly from our data, if they occured in-between our weather recording intervals... More about our weather records

Advertising

Louisville weather history for previous 24 hours

 ConditionsComfort  
Time TempWeatherWind HumidityBarometerVisibility
3:56 PM
Sat, Apr 18
81 °FPartly sunny.10 mph29%29.95 "Hg10 mi
2:56 PM80 °FBroken clouds.10 mph30%29.98 "Hg10 mi
1:56 PM78 °FPartly sunny.7 mph32%29.99 "Hg10 mi
12:56 PM76 °FMore clouds than sun.7 mph33%30.01 "Hg10 mi
11:56 AM75 °FPartly sunny.3 mph42%30.02 "Hg10 mi
10:56 AM69 °FPartly sunny.3 mph59%30.03 "Hg10 mi
9:56 AM64 °FHigh level clouds.3 mph73%30.03 "Hg7 mi
8:56 AM62 °FPartly sunny.No wind80%30.03 "Hg5 mi
7:56 AM59 °FFog.No wind87%30.04 "Hg6 mi
6:56 AM57 °FPassing clouds.5 mph90%30.02 "Hg7 mi
5:56 AM57 °FClear.No wind90%30.01 "Hg7 mi
4:56 AM60 °FFog.3 mph86%30.02 "Hg6 mi
3:56 AM61 °FFog.No wind87%30.02 "Hg6 mi
2:56 AM61 °FFog.No wind87%30.03 "Hg6 mi
1:56 AM62 °FClear.3 mph86%30.04 "Hg7 mi
12:56 AM63 °FClear.No wind84%30.01 "Hg7 mi
11:56 PM
Fri, Apr 17
66 °FPassing clouds.No wind75%30.00 "Hg8 mi
10:56 PM68 °FPassing clouds.No wind70%30.02 "Hg9 mi
9:56 PM69 °FPassing clouds.No wind68%30.02 "Hg10 mi
8:56 PM71 °FPartly sunny.3 mph63%30.00 "Hg10 mi
7:56 PM73 °FOvercast.6 mph59%29.99 "Hg10 mi
6:56 PM74 °FMore clouds than sun.8 mph57%29.99 "Hg10 mi
5:56 PM76 °FMore clouds than sun.No wind50%29.99 "Hg10 mi
Weather by CustomWeather, © 2015

See weather overviewHow to use our weather pages